Miscellaneous Local Product
Issued by NWS Hastings, NE

Home | Current Version | Previous Version | Graphics & Text | Print | Product List | Glossary On
Versions: 1 2 3 4 5 6 7 8 9 10 11 12 13 14 15 16 17 18 19 20 21 22 23 24 25 26 27 28 29 30 31 32 33 34 35 36 37 38 39 40 41 42 43 44 45 46 47 48 49 50
000
AXUS43 KGID 281902
MISGRI

GID CWA HOURLY WEATHER ROUNDUP
NATIONAL WEATHER SERVICE HASTINGS NE
200 PM CDT TUE JUL 28 2015

NOTE: "FAIR" INDICATES FEW OR NO CLOUDS BELOW 12,000 FEET WITH NO
SIGNIFICANT WEATHER AND/OR OBSTRUCTIONS TO VISIBILITY.

...SOUTH CENTRAL NEBRASKA...

CITY           SKY/WX    TMP DP  RH WIND       PRES   REMARKS
GRAND ISLAND   CLOUDY    82  65  56 N15       29.95R
HASTINGS       MOSUNNY   81  69  67 N21       29.94R
KEARNEY        MOSUNNY   82  54  36 N22G28    29.97S
ORD            MOSUNNY   79  52  38 N14       29.96S
YORK           PTSUNNY   77  73  88 N13G18    29.90R
AURORA         CLOUDY    77  71  82 N18G24    29.93R
LEXINGTON      MOSUNNY   76  53  44 N10       30.01R
HOLDREGE       MOSUNNY   79  55  43 N17G23    29.98S
HEBRON         PTSUNNY   89  69  50 N6        29.86R HX  93

...NEBRASKA PANHANDLE...

CITY           SKY/WX    TMP DP  RH WIND       PRES   REMARKS
CHADRON        SUNNY     77  39  25 NW14G22   30.07F
ALLIANCE       SUNNY     78  36  21 NW16G26   30.10R
SCOTTSBLUFF    SUNNY     77  33  20 W13       30.12S
SIDNEY         SUNNY     80  32  17 N16G24    30.13S

...WESTERN AND NORTH CENTRAL NEBRASKA...

CITY           SKY/WX    TMP DP  RH WIND       PRES   REMARKS
VALENTINE      SUNNY     78  44  29 MISG      30.02S
AINSWORTH      SUNNY     79  46  31 NW10G17   30.03R
ONEILL         SUNNY     77  56  48 NW16      29.99S
BROKEN BOW     SUNNY     81  52  36 N15G23    30.01S
IMPERIAL       SUNNY     82  41  23 N14G23    30.07S
NORTH PLATTE   SUNNY     82  44  26 N15       30.02S
MCCOOK         SUNNY     85  54  34 NE16      30.01S

...EASTERN NEBRASKA...

CITY           SKY/WX    TMP DP  RH WIND       PRES   REMARKS
NORFOLK        CLOUDY    78  66  66 NW16      29.91S
SO SIOUX CITY  LGT RAIN  76  70  82 NW14G23   29.88R
TEKAMAH        LGT RAIN  79  76  90 VRB3      29.87R
COLUMBUS       CLOUDY    72  64  78 N10G20    29.92R
ALBION         MOSUNNY   78  55  45 N14G29    29.94R
OMAHA EPPLEY   PTSUNNY   89  74  60 S13       29.85S HX  98
OFFUTT AFB     PTSUNNY   89  75  64 SE10      29.84S HX  99
MILLARD        PTSUNNY   88  75  66 S9        29.85S HX  97
LINCOLN        MOSUNNY   88  73  61 S7        29.86R HX  95
NEBRASKA CITY  SUNNY     89  71  55 S10       29.85F HX  96
BEATRICE       SUNNY     90  72  56 S9        29.85S HX  97
FALLS CITY     SUNNY     91  76  61 S15       29.84F HX 103

...NORTHERN KANSAS...

CITY           SKY/WX    TMP DP  RH WIND       PRES   REMARKS
GOODLAND       SUNNY     82  41  23 N17G26    30.08R
HILL CITY      SUNNY     86  56  35 N18G31    29.97R
NORTON         CLEAR     81  46  30 N15G26    29.98S
PHILLIPSBURG   MOSUNNY   86  59  39 NW22G28   29.94R
SMITH CENTER   PTSUNNY   84  66  54 N18G25    29.91R
HAYS           SUNNY     88  66  48 N22G29    29.90R HX  90
RUSSELL        SUNNY     92  69  47 CALM      29.86R HX  97
CONCORDIA      SUNNY     94  71  47 W10G16    29.85R HX 101
SALINA         SUNNY    101  68  34 S16G22    29.82F HX 106
TOPEKA         SUNNY     95  73  48 S13G22    29.86S HX 104



USA.gov is the U.S. government's official web portal to all federal, state and local government web resources and services.